Regional Weather Roundup
Issued by NWS

Home | Current Version | Previous Version | Graphics & Text | Print | Product List | Glossary On
Versions: 1 2 3 4 5 6 7 8 9 10 11 12 13 14 15 16 17 18 19 20 21 22 23 24 25 26 27 28 29 30 31 32 33 34 35 36 37 38 39 40 41 42 43 44 45 46 47 48 49 50
325
ASUS44 KJAN 171203
RWRMS

MISSISSIPPI HOURLY WEATHER ROUNDUP
NATIONAL WEATHER SERVICE JACKSON MS
700 AM CDT THU APR 17 2014

NOTE: "FAIR: INDICATES FEW OR NO CLOUDS BELOW 12,000 FEET WITH NO
SIGNIFICANT WEATHER AND/OR OBSTRUCTIONS TO VISIBILITY.

MSZ001>002-007>008-010>013-018>021-025>028-034>036-171300-
NORTHWEST MISSISSIPPI

CITY           SKY/WX    TMP DP  RH WIND       PRES   REMARKS
CLARKSDALE       N/A     43  39  87 CALM      30.24R
CLEVELAND      FAIR      46  41  85 E3        30.22R
GREENWOOD      CLEAR     45  38  76 VRB3      30.24R
6HR MIN TEMP:  40; 6HR MAX TEMP:  47;

GREENVILLE     CLEAR     46  40  79 CALM      30.21R
6HR MIN TEMP:  41; 6HR MAX TEMP:  47;

GRENADA        FAIR      43  39  87 SE5       30.26R
OLIVE BRANCH   PTCLDY    41  37  87 SE7       30.25R
OXFORD         FAIR      45  36  70 SE3       30.28R
TUNICA         SUNNY     41  37  87 CALM      30.25R
$$

MSZ003>006-009-014>017-022>024-029>033-037>039-171300-
NORTHEAST MISSISSIPPI

CITY           SKY/WX    TMP DP  RH WIND       PRES   REMARKS
BELMONT        FAIR      45  36  71 SE3       30.29R
COLUMBUS AFB   CLEAR     43  37  78 SE2       30.29R
6HR MIN TEMP:  42; 6HR MAX TEMP:  46;

CORINTH        FAIR      37  34  87 CALM      30.29R
GOLDN TRIANGLE CLEAR     48  36  61 SE9       30.30R
STARKVILLE     FAIR      45  37  76 E5        30.27R
TUPELO         CLEAR     46  37  71 S5        30.28R
6HR MIN TEMP:  40; 6HR MAX TEMP:  46;

$$

MSZ040-058-171300-
CENTRAL MISSISSIPPI

CITY           SKY/WX    TMP DP  RH WIND       PRES   REMARKS
JACKSON INTL   PTCLDY    42  39  89 CALM      30.23R
6HR MIN TEMP:  41; 6HR MAX TEMP:  46;

JACKSON HAWKNS PTCLDY    43  40  89 CALM      30.23R
6HR MIN TEMP:  42; 6HR MAX TEMP:  49;

MERIDIAN KEY   CLEAR     46  40  79 NE3       30.26R
6HR MIN TEMP:  40; 6HR MAX TEMP:  46;

MERIDIAN NAS   CLEAR     42  39  89 E5        30.27R
6HR MIN TEMP:  41; 6HR MAX TEMP:  46;

RAYMOND        FAIR      39  36  87 MISG      30.22R HAZE
VICKSBURG      PTCLDY    47  44  90 SE5       30.21R
6HR MIN TEMP:  47; 6HR MAX TEMP:  52;

$$

MSZ059>079-171300-
SOUTH MISSISSIPPI

CITY           SKY/WX    TMP DP  RH WIND       PRES   REMARKS
BROOKHAVEN     CLOUDY    45  45 100 NE3       30.21S FOG
COLUMBIA       CLOUDY    48  46  93 MISG      30.20R
HATTIESBURG    CLOUDY    49  46  90 N3        30.23R
6HR MIN TEMP:  41; 6HR MAX TEMP:  49;

MCCOMB         CLOUDY    49  44  83 NE3       30.19R
6HR MIN TEMP:  43; 6HR MAX TEMP:  49;

NATCHEZ        CLOUDY    45  41  87 NE5       30.18S
6HR MIN TEMP:  41; 6HR MAX TEMP:  46;

PINE BELT      CLOUDY    46  43  87 N6        30.23R
6HR MIN TEMP:  41; 6HR MAX TEMP:  46;

$$

MSZ080>082-171300-
COASTAL MISSISSIPPI

CITY           SKY/WX    TMP DP  RH WIND       PRES   REMARKS
BAY ST LOUIS   CLOUDY    54  46  76 NE8       30.17
BILOXI         CLOUDY    53  50  89 NE8       30.17R
6HR MIN TEMP:  48; 6HR MAX TEMP:  53;

PASCAGOULA     CLOUDY    54  51  90 NE6       30.18R
6HR MIN TEMP:  45; 6HR MAX TEMP:  54;

GULFPORT       CLOUDY    56  48  74 N6        30.17R
6HR MIN TEMP:  51; 6HR MAX TEMP:  56;

$$



USA.gov is the U.S. government's official web portal to all federal, state and local government web resources and services.